Time,TemperatureF,DewpointF,PressureIn,WindDirection,WindDirectionDegrees,WindSpeedMPH,WindSpeedGustMPH,Humidity,HourlyPrecipIn,Conditions,Clouds,dailyrainin,SoftwareType,DateUTC
2013-09-21 00:00:00,71.7,68.6,29.91,ENE,68,0.0,-999.0,90,0.00,,,0.00,Wunderground v.1.15,2013-09-21 04:00:00,
2013-09-21 00:05:00,71.7,68.6,29.91,ENE,68,0.0,-999.0,90,0.00,,,0.00,Wunderground v.1.15,2013-09-21 04:05:00,
2013-09-21 00:10:00,71.7,68.6,29.91,ENE,68,0.0,-999.0,90,0.00,,,0.00,Wunderground v.1.15,2013-09-21 04:10:00,
2013-09-21 00:15:00,71.7,68.6,29.91,ENE,68,0.0,-999.0,90,0.00,,,0.00,Wunderground v.1.15,2013-09-21 04:15:00,
2013-09-21 00:20:00,71.7,68.6,29.91,ENE,68,0.0,-999.0,90,0.00,,,0.00,Wunderground v.1.15,2013-09-21 04:20:00,
2013-09-21 00:25:00,71.7,68.6,29.91,ENE,68,0.0,-999.0,90,0.00,,,0.00,Wunderground v.1.15,2013-09-21 04:25:00,
2013-09-21 00:30:00,71.7,68.6,29.91,ENE,68,0.0,-999.0,90,0.00,,,0.00,Wunderground v.1.15,2013-09-21 04:30:00,
2013-09-21 00:35:00,71.7,68.6,29.91,ENE,68,0.0,-999.0,90,0.00,,,0.00,Wunderground v.1.15,2013-09-21 04:35:00,
2013-09-21 00:40:00,71.7,68.6,29.91,ENE,68,0.0,-999.0,90,0.00,,,0.00,Wunderground v.1.15,2013-09-21 04:40:00,
2013-09-21 00:45:00,71.4,68.6,29.90,ENE,68,0.0,-999.0,91,0.00,,,0.00,Wunderground v.1.15,2013-09-21 04:45:00,
2013-09-21 00:50:00,71.4,68.6,29.90,ENE,68,0.0,-999.0,91,0.00,,,0.00,Wunderground v.1.15,2013-09-21 04:50:00,
2013-09-21 00:55:00,71.4,68.6,29.90,ENE,68,0.0,-999.0,91,0.00,,,0.00,Wunderground v.1.15,2013-09-21 04:55:00,
2013-09-21 01:00:00,71.4,68.6,29.90,ENE,68,0.0,-999.0,91,0.00,,,0.00,Wunderground v.1.15,2013-09-21 05:00:00,
2013-09-21 01:05:00,71.4,68.6,29.90,ENE,68,0.0,-999.0,91,0.00,,,0.00,Wunderground v.1.15,2013-09-21 05:05:00,
2013-09-21 01:10:00,71.4,68.6,29.90,ENE,68,0.0,-999.0,91,0.00,,,0.00,Wunderground v.1.15,2013-09-21 05:10:00,
2013-09-21 01:15:00,71.1,68.3,29.90,ENE,68,0.0,-999.0,91,0.00,,,0.00,Wunderground v.1.15,2013-09-21 05:15:00,
2013-09-21 01:20:00,71.1,68.3,29.90,ENE,68,0.0,-999.0,91,0.00,,,0.00,Wunderground v.1.15,2013-09-21 05:20:00,
2013-09-21 01:25:00,71.1,68.3,29.90,ENE,68,0.0,-999.0,91,0.00,,,0.00,Wunderground v.1.15,2013-09-21 05:25:00,
2013-09-21 01:30:00,71.1,68.3,29.90,ENE,68,0.0,-999.0,91,0.00,,,0.00,Wunderground v.1.15,2013-09-21 05:30:00,
2013-09-21 01:35:00,71.1,68.3,29.90,ENE,68,0.0,-999.0,91,0.00,,,0.00,Wunderground v.1.15,2013-09-21 05:35:00,
2013-09-21 01:40:00,71.1,68.3,29.90,ENE,68,0.0,-999.0,91,0.00,,,0.00,Wunderground v.1.15,2013-09-21 05:40:00,
2013-09-21 01:45:00,70.9,68.1,29.90,ENE,68,0.0,-999.0,91,0.00,,,0.00,Wunderground v.1.15,2013-09-21 05:45:00,
2013-09-21 01:50:00,70.9,68.1,29.90,ENE,68,0.0,-999.0,91,0.00,,,0.00,Wunderground v.1.15,2013-09-21 05:50:00,
2013-09-21 01:55:00,70.9,68.1,29.90,ENE,68,0.0,-999.0,91,0.00,,,0.00,Wunderground v.1.15,2013-09-21 05:55:00,
2013-09-21 02:00:00,70.9,68.1,29.90,ENE,68,0.0,-999.0,91,0.00,,,0.00,Wunderground v.1.15,2013-09-21 06:00:00,
2013-09-21 02:05:00,70.9,68.1,29.90,ENE,68,0.0,-999.0,91,0.00,,,0.00,Wunderground v.1.15,2013-09-21 06:05:00,
2013-09-21 02:10:00,70.9,68.1,29.90,ENE,68,0.0,-999.0,91,0.00,,,0.00,Wunderground v.1.15,2013-09-21 06:10:00,
2013-09-21 02:15:00,70.8,68.0,29.89,East,90,0.0,-999.0,91,0.00,,,0.00,Wunderground v.1.15,2013-09-21 06:15:00,
2013-09-21 02:20:00,70.8,68.0,29.89,East,90,0.0,-999.0,91,0.00,,,0.00,Wunderground v.1.15,2013-09-21 06:20:00,
2013-09-21 02:25:00,70.8,68.0,29.89,East,90,0.0,-999.0,91,0.00,,,0.00,Wunderground v.1.15,2013-09-21 06:25:00,
2013-09-21 02:30:00,70.8,68.0,29.89,East,90,0.0,-999.0,91,0.00,,,0.00,Wunderground v.1.15,2013-09-21 06:30:00,
2013-09-21 02:35:00,70.8,68.0,29.89,East,90,0.0,-999.0,91,0.00,,,0.00,Wunderground v.1.15,2013-09-21 06:35:00,
2013-09-21 02:40:00,70.8,68.0,29.89,East,90,0.0,-999.0,91,0.00,,,0.00,Wunderground v.1.15,2013-09-21 06:40:00,
2013-09-21 02:45:00,70.9,68.1,29.89,ENE,68,0.0,-999.0,91,0.00,,,0.00,Wunderground v.1.15,2013-09-21 06:45:00,
2013-09-21 02:50:00,70.9,68.1,29.89,ENE,68,0.0,-999.0,91,0.00,,,0.00,Wunderground v.1.15,2013-09-21 06:50:00,
2013-09-21 02:55:00,70.9,68.1,29.89,ENE,68,0.0,-999.0,91,0.00,,,0.00,Wunderground v.1.15,2013-09-21 06:55:00,
2013-09-21 03:00:00,70.9,68.1,29.89,ENE,68,0.0,-999.0,91,0.00,,,0.00,Wunderground v.1.15,2013-09-21 07:00:00,
2013-09-21 03:05:00,70.9,68.1,29.89,ENE,68,0.0,-999.0,91,0.00,,,0.00,Wunderground v.1.15,2013-09-21 07:05:00,
2013-09-21 03:10:00,70.9,68.1,29.89,ENE,68,0.0,-999.0,91,0.00,,,0.00,Wunderground v.1.15,2013-09-21 07:10:00,
2013-09-21 03:15:00,70.7,67.9,29.88,NE,45,0.0,-999.0,91,0.00,,,0.00,Wunderground v.1.15,2013-09-21 07:15:00,
2013-09-21 03:20:00,70.7,67.9,29.88,NE,45,0.0,-999.0,91,0.00,,,0.00,Wunderground v.1.15,2013-09-21 07:20:00,
2013-09-21 03:25:00,70.7,67.9,29.88,NE,45,0.0,-999.0,91,0.00,,,0.00,Wunderground v.1.15,2013-09-21 07:25:00,
2013-09-21 03:30:00,70.7,67.9,29.88,NE,45,0.0,-999.0,91,0.00,,,0.00,Wunderground v.1.15,2013-09-21 07:30:00,
2013-09-21 03:35:00,70.7,67.9,29.88,NE,45,0.0,-999.0,91,0.00,,,0.00,Wunderground v.1.15,2013-09-21 07:35:00,
2013-09-21 03:40:00,70.7,67.9,29.88,NE,45,0.0,-999.0,91,0.00,,,0.00,Wunderground v.1.15,2013-09-21 07:40:00,
2013-09-21 03:45:00,70.7,67.6,29.86,ENE,68,0.0,-999.0,90,0.00,,,0.00,Wunderground v.1.15,2013-09-21 07:45:00,
2013-09-21 03:50:00,70.7,67.6,29.86,ENE,68,0.0,-999.0,90,0.00,,,0.00,Wunderground v.1.15,2013-09-21 07:50:00,
2013-09-21 03:55:00,70.7,67.6,29.86,ENE,68,0.0,-999.0,90,0.00,,,0.00,Wunderground v.1.15,2013-09-21 07:55:00,
2013-09-21 04:00:00,70.7,67.6,29.86,ENE,68,0.0,-999.0,90,0.00,,,0.00,Wunderground v.1.15,2013-09-21 08:00:00,
2013-09-21 04:05:00,70.7,67.6,29.86,ENE,68,0.0,-999.0,90,0.00,,,0.00,Wunderground v.1.15,2013-09-21 08:05:00,
2013-09-21 04:10:00,70.7,67.6,29.86,ENE,68,0.0,-999.0,90,0.00,,,0.00,Wunderground v.1.15,2013-09-21 08:10:00,
2013-09-21 04:15:00,70.7,67.6,29.86,NE,45,0.0,-999.0,90,0.00,,,0.00,Wunderground v.1.15,2013-09-21 08:15:00,
2013-09-21 04:20:00,70.7,67.6,29.86,NE,45,0.0,-999.0,90,0.00,,,0.00,Wunderground v.1.15,2013-09-21 08:20:00,
2013-09-21 04:25:00,70.7,67.6,29.86,NE,45,0.0,-999.0,90,0.00,,,0.00,Wunderground v.1.15,2013-09-21 08:25:00,
2013-09-21 04:30:00,70.7,67.6,29.86,NE,45,0.0,-999.0,90,0.00,,,0.00,Wunderground v.1.15,2013-09-21 08:30:00,
2013-09-21 04:35:00,70.7,67.6,29.86,NE,45,0.0,-999.0,90,0.00,,,0.00,Wunderground v.1.15,2013-09-21 08:35:00,
2013-09-21 04:40:00,70.7,67.6,29.86,NE,45,0.0,-999.0,90,0.00,,,0.00,Wunderground v.1.15,2013-09-21 08:40:00,
2013-09-21 04:45:00,71.3,68.2,29.85,WNW,293,1.0,-999.0,90,0.00,,,0.00,Wunderground v.1.15,2013-09-21 08:45:00,
2013-09-21 04:50:00,71.3,68.2,29.85,WNW,293,1.0,-999.0,90,0.00,,,0.00,Wunderground v.1.15,2013-09-21 08:50:00,
2013-09-21 04:55:00,71.3,68.2,29.85,WNW,293,1.0,-999.0,90,0.00,,,0.00,Wunderground v.1.15,2013-09-21 08:55:00,
2013-09-21 05:00:00,71.3,68.2,29.85,WNW,293,1.0,-999.0,90,0.00,,,0.00,Wunderground v.1.15,2013-09-21 09:00:00,
2013-09-21 05:05:00,71.3,68.2,29.85,WNW,293,1.0,-999.0,90,0.00,,,0.00,Wunderground v.1.15,2013-09-21 09:05:00,
2013-09-21 05:10:00,71.3,68.2,29.85,WNW,293,1.0,-999.0,90,0.00,,,0.00,Wunderground v.1.15,2013-09-21 09:10:00,
2013-09-21 05:15:00,71.1,68.0,29.84,WNW,293,1.0,-999.0,90,0.00,,,0.00,Wunderground v.1.15,2013-09-21 09:15:00,
2013-09-21 05:20:00,71.1,68.0,29.84,WNW,293,1.0,-999.0,90,0.00,,,0.00,Wunderground v.1.15,2013-09-21 09:20:00,
2013-09-21 05:25:00,71.1,68.0,29.84,WNW,293,1.0,-999.0,90,0.00,,,0.00,Wunderground v.1.15,2013-09-21 09:25:00,
2013-09-21 05:30:00,71.1,68.0,29.84,WNW,293,1.0,-999.0,90,0.00,,,0.00,Wunderground v.1.15,2013-09-21 09:30:00,
2013-09-21 05:35:00,71.1,68.0,29.84,WNW,293,1.0,-999.0,90,0.00,,,0.00,Wunderground v.1.15,2013-09-21 09:35:00,
2013-09-21 05:40:00,71.1,68.0,29.84,WNW,293,1.0,-999.0,90,0.00,,,0.00,Wunderground v.1.15,2013-09-21 09:40:00,
2013-09-21 05:45:00,70.6,67.5,29.83,West,270,2.0,-999.0,90,0.00,,,0.00,Wunderground v.1.15,2013-09-21 09:45:00,
2013-09-21 05:50:00,70.6,67.5,29.83,West,270,2.0,-999.0,90,0.00,,,0.00,Wunderground v.1.15,2013-09-21 09:50:00,
2013-09-21 05:55:00,70.6,67.5,29.83,West,270,2.0,-999.0,90,0.00,,,0.00,Wunderground v.1.15,2013-09-21 09:55:00,
2013-09-21 06:00:00,70.6,67.5,29.83,West,270,2.0,-999.0,90,0.00,,,0.00,Wunderground v.1.15,2013-09-21 10:00:00,
2013-09-21 06:05:00,70.6,67.5,29.83,West,270,2.0,-999.0,90,0.00,,,0.00,Wunderground v.1.15,2013-09-21 10:05:00,
2013-09-21 06:10:00,70.6,67.5,29.83,West,270,2.0,-999.0,90,0.00,,,0.00,Wunderground v.1.15,2013-09-21 10:10:00,
2013-09-21 06:15:00,70.1,67.0,29.83,West,270,2.0,-999.0,90,0.00,,,0.00,Wunderground v.1.15,2013-09-21 10:15:00,
2013-09-21 06:20:00,70.1,67.0,29.83,West,270,2.0,-999.0,90,0.00,,,0.00,Wunderground v.1.15,2013-09-21 10:20:00,
2013-09-21 06:25:00,70.1,67.0,29.83,West,270,2.0,-999.0,90,0.00,,,0.00,Wunderground v.1.15,2013-09-21 10:25:00,
2013-09-21 06:30:00,70.1,67.0,29.83,West,270,2.0,-999.0,90,0.00,,,0.00,Wunderground v.1.15,2013-09-21 10:30:00,
2013-09-21 06:35:00,70.1,67.0,29.83,West,270,2.0,-999.0,90,0.00,,,0.00,Wunderground v.1.15,2013-09-21 10:35:00,
2013-09-21 06:40:00,70.1,67.0,29.83,West,270,2.0,-999.0,90,0.00,,,0.00,Wunderground v.1.15,2013-09-21 10:40:00,
2013-09-21 06:45:00,69.5,66.8,29.83,West,270,2.0,-999.0,91,0.00,,,0.00,Wunderground v.1.15,2013-09-21 10:45:00,
2013-09-21 06:50:00,69.5,66.8,29.83,West,270,2.0,-999.0,91,0.00,,,0.00,Wunderground v.1.15,2013-09-21 10:50:00,
2013-09-21 06:55:00,69.5,66.8,29.83,West,270,2.0,-999.0,91,0.00,,,0.00,Wunderground v.1.15,2013-09-21 10:55:00,
2013-09-21 07:00:00,69.5,66.8,29.83,West,270,2.0,-999.0,91,0.00,,,0.00,Wunderground v.1.15,2013-09-21 11:00:00,
2013-09-21 07:30:00,69.5,67.1,29.83,WNW,284,1.0,2.0,92,0.00,,,0.00,Wunderground v.1.15,2013-09-21 11:30:00,
2013-09-21 07:35:00,69.5,67.1,29.83,WSW,255,1.0,3.0,92,0.00,,,0.00,Wunderground v.1.15,2013-09-21 11:35:00,
2013-09-21 07:40:00,69.6,67.2,29.83,West,275,2.0,2.0,92,0.00,,,0.00,Wunderground v.1.15,2013-09-21 11:40:00,
2013-09-21 07:45:00,69.7,67.3,29.84,West,280,2.0,3.0,92,0.00,,,0.00,Wunderground v.1.15,2013-09-21 11:45:00,
2013-09-21 07:50:00,69.7,67.3,29.84,WNW,284,1.0,1.0,92,0.00,,,0.00,Wunderground v.1.15,2013-09-21 11:50:00,
2013-09-21 07:55:00,69.8,67.4,29.84,WSW,254,1.0,1.0,92,0.00,,,0.00,Wunderground v.1.15,2013-09-21 11:55:00,
2013-09-21 08:00:00,69.9,67.5,29.84,WSW,257,2.0,2.0,92,0.00,,,0.00,Wunderground v.1.15,2013-09-21 12:00:00,
2013-09-21 08:05:00,69.9,67.5,29.84,West,264,3.0,3.0,92,0.00,,,0.00,Wunderground v.1.15,2013-09-21 12:05:00,
2013-09-21 08:10:00,70.1,67.7,29.84,West,269,3.0,6.0,92,0.00,,,0.00,Wunderground v.1.15,2013-09-21 12:10:00,
2013-09-21 08:15:00,70.2,67.8,29.84,West,277,2.0,6.0,92,0.00,,,0.00,Wunderground v.1.15,2013-09-21 12:15:00,
2013-09-21 08:20:00,70.3,67.9,29.84,West,263,2.0,2.0,92,0.00,,,0.00,Wunderground v.1.15,2013-09-21 12:20:00,
2013-09-21 08:30:00,70.3,67.9,29.84,West,271,3.0,6.0,92,0.00,,,0.00,Wunderground v.1.15,2013-09-21 12:30:00,
2013-09-21 08:35:00,70.5,68.1,29.84,West,276,2.0,6.0,92,0.00,,,0.00,Wunderground v.1.15,2013-09-21 12:35:00,
2013-09-21 08:40:00,70.5,68.1,29.85,WNW,286,2.0,6.0,92,0.00,,,0.00,Wunderground v.1.15,2013-09-21 12:40:00,
2013-09-21 08:45:00,70.6,68.2,29.85,West,265,2.0,6.0,92,0.00,,,0.00,Wunderground v.1.15,2013-09-21 12:45:00,
2013-09-21 08:50:00,70.5,68.1,29.84,WSW,244,2.0,6.0,92,0.00,,,0.00,Wunderground v.1.15,2013-09-21 12:50:00,
2013-09-21 08:55:00,70.4,67.6,29.84,SW,230,3.0,6.0,91,0.00,,,0.00,Wunderground v.1.15,2013-09-21 12:55:00,
2013-09-21 09:00:00,70.4,67.6,29.84,WSW,240,4.0,4.0,91,0.00,,,0.00,Wunderground v.1.15,2013-09-21 13:00:00,
2013-09-21 09:05:00,70.3,67.5,29.84,West,261,4.0,12.0,91,0.00,,,0.00,Wunderground v.1.15,2013-09-21 13:05:00,
2013-09-21 09:10:00,70.3,67.5,29.84,West,261,5.0,5.0,91,0.00,,,0.00,Wunderground v.1.15,2013-09-21 13:10:00,
2013-09-21 09:15:00,70.3,67.5,29.85,West,278,5.0,7.0,91,0.00,,,0.00,Wunderground v.1.15,2013-09-21 13:15:00,
2013-09-21 09:20:00,70.3,67.9,29.84,West,259,5.0,6.0,92,0.00,,,0.00,Wunderground v.1.15,2013-09-21 13:20:00,
2013-09-21 09:25:00,70.3,67.9,29.85,West,273,4.0,6.0,92,0.00,,,0.00,Wunderground v.1.15,2013-09-21 13:25:00,
2013-09-21 09:30:00,70.3,67.5,29.85,WNW,282,3.0,4.0,91,0.00,,,0.00,Wunderground v.1.15,2013-09-21 13:30:00,
2013-09-21 09:35:00,70.4,67.6,29.85,West,273,2.0,4.0,91,0.00,,,0.00,Wunderground v.1.15,2013-09-21 13:35:00,
2013-09-21 09:40:00,70.6,67.8,29.84,West,264,2.0,4.0,91,0.00,,,0.00,Wunderground v.1.15,2013-09-21 13:40:00,
2013-09-21 09:45:00,70.6,67.8,29.84,West,268,3.0,4.0,91,0.00,,,0.00,Wunderground v.1.15,2013-09-21 13:45:00,
2013-09-21 09:50:00,70.7,67.9,29.84,West,269,3.0,3.0,91,0.00,,,0.00,Wunderground v.1.15,2013-09-21 13:50:00,
2013-09-21 09:55:00,70.7,67.9,29.84,West,273,2.0,3.0,91,0.00,,,0.00,Wunderground v.1.15,2013-09-21 13:55:00,
2013-09-21 10:00:00,70.9,68.1,29.84,SW,236,2.0,3.0,91,0.00,,,0.00,Wunderground v.1.15,2013-09-21 14:00:00,
2013-09-21 10:05:00,71.0,68.2,29.84,West,279,3.0,6.0,91,0.00,,,0.00,Wunderground v.1.15,2013-09-21 14:05:00,
2013-09-21 10:10:00,71.1,68.3,29.84,WSW,253,3.0,3.0,91,0.00,,,0.00,Wunderground v.1.15,2013-09-21 14:10:00,
2013-09-21 10:15:00,71.2,68.1,29.84,WSW,247,3.0,5.0,90,0.00,,,0.00,Wunderground v.1.15,2013-09-21 14:15:00,
2013-09-21 10:20:00,71.3,68.2,29.84,West,276,2.0,2.0,90,0.00,,,0.00,Wunderground v.1.15,2013-09-21 14:20:00,
2013-09-21 10:25:00,71.4,68.3,29.84,West,265,2.0,9.0,90,0.00,,,0.00,Wunderground v.1.15,2013-09-21 14:25:00,
2013-09-21 10:30:00,71.5,68.4,29.84,West,275,2.0,2.0,90,0.00,,,0.00,Wunderground v.1.15,2013-09-21 14:30:00,
2013-09-21 10:35:00,71.6,68.5,29.84,West,262,2.0,9.0,90,0.00,,,0.00,Wunderground v.1.15,2013-09-21 14:35:00,
2013-09-21 10:40:00,71.7,68.3,29.84,West,262,2.0,9.0,89,0.00,,,0.00,Wunderground v.1.15,2013-09-21 14:40:00,
2013-09-21 10:45:00,71.7,68.3,29.84,West,261,3.0,9.0,89,0.00,,,0.00,Wunderground v.1.15,2013-09-21 14:45:00,
2013-09-21 10:50:00,71.8,68.4,29.84,West,263,3.0,9.0,89,0.00,,,0.00,Wunderground v.1.15,2013-09-21 14:50:00,
2013-09-21 10:55:00,71.9,68.8,29.83,West,278,3.0,9.0,90,0.00,,,0.00,Wunderground v.1.15,2013-09-21 14:55:00,
2013-09-21 11:05:00,72.2,68.4,29.83,West,264,2.0,5.0,88,0.00,,,0.00,Wunderground v.1.15,2013-09-21 15:05:00,
2013-09-21 11:10:00,72.4,69.0,29.83,West,263,2.0,9.0,89,0.00,,,0.00,Wunderground v.1.15,2013-09-21 15:10:00,
2013-09-21 11:15:00,72.5,69.1,29.83,NW,308,2.0,9.0,89,0.00,,,0.00,Wunderground v.1.15,2013-09-21 15:15:00,
2013-09-21 11:20:00,72.8,69.4,29.83,WNW,282,2.0,9.0,89,0.00,,,0.00,Wunderground v.1.15,2013-09-21 15:20:00,
2013-09-21 11:25:00,73.0,69.6,29.82,West,273,1.0,9.0,89,0.00,,,0.00,Wunderground v.1.15,2013-09-21 15:25:00,
2013-09-21 11:30:00,73.2,69.4,29.82,West,271,1.0,9.0,88,0.00,,,0.00,Wunderground v.1.15,2013-09-21 15:30:00,
2013-09-21 11:35:00,73.2,69.4,29.82,WNW,284,2.0,9.0,88,0.00,,,0.00,Wunderground v.1.15,2013-09-21 15:35:00,
2013-09-21 11:40:00,73.2,69.4,29.82,West,277,2.0,2.0,88,0.00,,,0.00,Wunderground v.1.15,2013-09-21 15:40:00,
2013-09-21 11:45:00,73.2,69.4,29.81,West,271,2.0,9.0,88,0.00,,,0.00,Wunderground v.1.15,2013-09-21 15:45:00,
2013-09-21 11:50:00,73.1,69.3,29.81,WSW,254,2.0,9.0,88,0.00,,,0.00,Wunderground v.1.15,2013-09-21 15:50:00,
2013-09-21 11:55:00,73.2,69.4,29.81,WNW,288,2.0,9.0,88,0.00,,,0.00,Wunderground v.1.15,2013-09-21 15:55:00,
2013-09-21 12:00:00,73.2,69.4,29.81,WSW,257,2.0,2.0,88,0.00,,,0.00,Wunderground v.1.15,2013-09-21 16:00:00,
2013-09-21 12:05:00,73.3,69.5,29.81,West,279,3.0,3.0,88,0.00,,,0.00,Wunderground v.1.15,2013-09-21 16:05:00,
2013-09-21 12:10:00,73.4,69.6,29.81,West,273,3.0,9.0,88,0.00,,,0.00,Wunderground v.1.15,2013-09-21 16:10:00,
2013-09-21 12:15:00,73.5,69.7,29.80,West,276,2.0,9.0,88,0.00,,,0.00,Wunderground v.1.15,2013-09-21 16:15:00,
2013-09-21 12:20:00,73.6,69.8,29.80,West,279,1.0,9.0,88,0.00,,,0.00,Wunderground v.1.15,2013-09-21 16:20:00,
2013-09-21 12:25:00,73.7,69.9,29.80,WSW,249,2.0,9.0,88,0.00,,,0.00,Wunderground v.1.15,2013-09-21 16:25:00,
2013-09-21 12:30:00,73.6,69.2,29.80,WSW,258,2.0,9.0,86,0.00,,,0.00,Wunderground v.1.15,2013-09-21 16:30:00,
2013-09-21 12:35:00,73.6,69.5,29.80,West,271,3.0,9.0,87,0.00,,,0.00,Wunderground v.1.15,2013-09-21 16:35:00,
2013-09-21 12:40:00,73.7,69.9,29.80,West,269,3.0,9.0,88,0.00,,,0.00,Wunderground v.1.15,2013-09-21 16:40:00,
2013-09-21 12:45:00,73.8,70.0,29.80,West,270,2.0,9.0,88,0.00,,,0.00,Wunderground v.1.15,2013-09-21 16:45:00,
2013-09-21 12:50:00,73.8,70.0,29.80,West,263,2.0,9.0,88,0.00,,,0.00,Wunderground v.1.15,2013-09-21 16:50:00,
2013-09-21 12:55:00,73.8,70.0,29.80,West,262,2.0,9.0,88,0.00,,,0.00,Wunderground v.1.15,2013-09-21 16:55:00,
2013-09-21 13:00:00,73.7,69.6,29.79,WSW,257,3.0,3.0,87,0.00,,,0.00,Wunderground v.1.15,2013-09-21 17:00:00,
2013-09-21 13:05:00,73.7,69.9,29.79,West,279,2.0,9.0,88,0.00,,,0.00,Wunderground v.1.15,2013-09-21 17:05:00,
2013-09-21 13:10:00,73.7,69.9,29.79,West,279,1.0,1.0,88,0.00,,,0.00,Wunderground v.1.15,2013-09-21 17:10:00,
2013-09-21 13:15:00,73.5,69.7,29.79,WNW,295,1.0,9.0,88,0.00,,,0.00,Wunderground v.1.15,2013-09-21 17:15:00,
2013-09-21 13:20:00,73.5,69.7,29.79,West,278,1.0,9.0,88,0.00,,,0.00,Wunderground v.1.15,2013-09-21 17:20:00,
2013-09-21 13:25:00,73.3,69.9,29.79,West,281,1.0,9.0,89,0.00,,,0.00,Wunderground v.1.15,2013-09-21 17:25:00,
2013-09-21 13:30:00,73.1,69.7,29.79,West,269,2.0,9.0,89,0.00,,,0.00,Wunderground v.1.15,2013-09-21 17:30:00,
2013-09-21 13:35:00,73.1,70.0,29.78,WNW,284,2.0,9.0,90,0.00,,,0.00,Wunderground v.1.15,2013-09-21 17:35:00,
2013-09-21 13:40:00,73.2,70.1,29.78,West,281,2.0,2.0,90,0.00,,,0.01,Wunderground v.1.15,2013-09-21 17:40:00,
2013-09-21 13:45:00,73.1,70.0,29.78,West,278,2.0,3.0,90,0.00,,,0.01,Wunderground v.1.15,2013-09-21 17:45:00,
2013-09-21 13:50:00,73.2,70.4,29.77,West,261,2.0,2.0,91,0.00,,,0.01,Wunderground v.1.15,2013-09-21 17:50:00,
2013-09-21 13:55:00,73.3,70.2,29.77,West,279,1.0,9.0,90,0.00,,,0.01,Wunderground v.1.15,2013-09-21 17:55:00,
2013-09-21 14:00:00,73.3,70.2,29.77,West,273,2.0,9.0,90,0.00,,,0.01,Wunderground v.1.15,2013-09-21 18:00:00,
2013-09-21 14:05:00,73.3,70.5,29.77,West,274,2.0,9.0,91,0.00,,,0.01,Wunderground v.1.15,2013-09-21 18:05:00,
2013-09-21 14:10:00,73.3,70.2,29.76,WNW,285,2.0,2.0,90,0.00,,,0.01,Wunderground v.1.15,2013-09-21 18:10:00,
2013-09-21 14:15:00,73.4,70.6,29.76,WNW,301,2.0,9.0,91,0.00,,,0.01,Wunderground v.1.15,2013-09-21 18:15:00,
2013-09-21 14:20:00,73.5,70.4,29.76,NNW,329,1.0,9.0,90,0.00,,,0.01,Wunderground v.1.15,2013-09-21 18:20:00,
2013-09-21 14:25:00,73.5,70.4,29.75,WNW,288,2.0,9.0,90,0.00,,,0.01,Wunderground v.1.15,2013-09-21 18:25:00,
2013-09-21 14:30:00,73.5,70.4,29.75,WNW,286,2.0,9.0,90,0.00,,,0.01,Wunderground v.1.15,2013-09-21 18:30:00,
2013-09-21 14:35:00,73.5,70.4,29.75,WNW,285,2.0,9.0,90,0.00,,,0.01,Wunderground v.1.15,2013-09-21 18:35:00,
2013-09-21 14:40:00,73.7,70.9,29.75,West,281,2.0,2.0,91,0.00,,,0.01,Wunderground v.1.15,2013-09-21 18:40:00,
2013-09-21 14:45:00,73.7,70.6,29.74,SSE,159,2.0,9.0,90,0.00,,,0.01,Wunderground v.1.15,2013-09-21 18:45:00,
2013-09-21 14:50:00,73.7,70.6,29.74,WNW,298,2.0,2.0,90,0.00,,,0.01,Wunderground v.1.15,2013-09-21 18:50:00,
2013-09-21 14:55:00,73.7,70.6,29.74,West,279,2.0,3.0,90,0.00,,,0.01,Wunderground v.1.15,2013-09-21 18:55:00,
2013-09-21 15:00:00,73.6,70.5,29.74,NW,313,3.0,9.0,90,0.00,,,0.01,Wunderground v.1.15,2013-09-21 19:00:00,
2013-09-21 15:05:00,73.5,70.4,29.74,WNW,288,3.0,9.0,90,0.00,,,0.01,Wunderground v.1.15,2013-09-21 19:05:00,
2013-09-21 15:10:00,73.5,70.4,29.73,West,271,3.0,3.0,90,0.00,,,0.01,Wunderground v.1.15,2013-09-21 19:10:00,
2013-09-21 15:20:00,73.5,70.4,29.73,WNW,284,3.0,9.0,90,0.00,,,0.02,Wunderground v.1.15,2013-09-21 19:20:00,
2013-09-21 15:25:00,73.4,70.3,29.73,West,280,3.0,9.0,90,0.00,,,0.02,Wunderground v.1.15,2013-09-21 19:25:00,
2013-09-21 15:30:00,73.4,70.3,29.72,WNW,290,3.0,3.0,90,0.00,,,0.02,Wunderground v.1.15,2013-09-21 19:30:00,
2013-09-21 15:35:00,73.5,70.7,29.72,WNW,288,2.0,9.0,91,0.00,,,0.02,Wunderground v.1.15,2013-09-21 19:35:00,
2013-09-21 15:40:00,73.6,70.8,29.72,WNW,290,2.0,2.0,91,0.00,,,0.02,Wunderground v.1.15,2013-09-21 19:40:00,
2013-09-21 15:45:00,73.6,70.8,29.72,WNW,294,3.0,3.0,91,0.00,,,0.02,Wunderground v.1.15,2013-09-21 19:45:00,
2013-09-21 15:50:00,73.5,70.7,29.72,South,178,3.0,3.0,91,0.00,,,0.02,Wunderground v.1.15,2013-09-21 19:50:00,
2013-09-21 15:55:00,73.5,70.7,29.72,WNW,289,3.0,9.0,91,0.00,,,0.03,Wunderground v.1.15,2013-09-21 19:55:00,
2013-09-21 16:00:00,73.4,70.6,29.71,WNW,302,2.0,2.0,91,0.00,,,0.03,Wunderground v.1.15,2013-09-21 20:00:00,
2013-09-21 16:05:00,73.4,70.6,29.71,North,5,2.0,9.0,91,0.00,,,0.03,Wunderground v.1.15,2013-09-21 20:05:00,
2013-09-21 16:10:00,73.4,70.6,29.71,NNW,332,2.0,9.0,91,0.00,,,0.03,Wunderground v.1.15,2013-09-21 20:10:00,
2013-09-21 16:15:00,73.4,70.9,29.71,West,263,2.0,9.0,92,0.00,,,0.03,Wunderground v.1.15,2013-09-21 20:15:00,
2013-09-21 16:20:00,73.4,70.6,29.71,WNW,288,2.0,2.0,91,0.00,,,0.03,Wunderground v.1.15,2013-09-21 20:20:00,
2013-09-21 16:25:00,73.5,70.7,29.71,North,5,2.0,9.0,91,0.00,,,0.03,Wunderground v.1.15,2013-09-21 20:25:00,
2013-09-21 16:30:00,73.5,70.7,29.71,WNW,296,2.0,2.0,91,0.00,,,0.03,Wunderground v.1.15,2013-09-21 20:30:00,
2013-09-21 16:35:00,73.5,70.7,29.70,NW,310,1.0,9.0,91,0.00,,,0.03,Wunderground v.1.15,2013-09-21 20:35:00,
2013-09-21 16:40:00,73.4,70.6,29.70,WNW,288,1.0,9.0,91,0.00,,,0.03,Wunderground v.1.15,2013-09-21 20:40:00,
2013-09-21 16:45:00,73.4,70.6,29.70,East,101,1.0,9.0,91,0.00,,,0.03,Wunderground v.1.15,2013-09-21 20:45:00,
2013-09-21 16:50:00,73.3,70.5,29.70,NW,319,2.0,2.0,91,0.00,,,0.03,Wunderground v.1.15,2013-09-21 20:50:00,
2013-09-21 16:55:00,73.3,70.2,29.70,NW,306,2.0,9.0,90,0.00,,,0.03,Wunderground v.1.15,2013-09-21 20:55:00,
2013-09-21 17:00:00,73.5,70.7,29.70,WNW,284,3.0,3.0,91,0.00,,,0.03,Wunderground v.1.15,2013-09-21 21:00:00,
2013-09-21 17:05:00,73.5,70.4,29.69,WNW,303,2.0,3.0,90,0.00,,,0.03,Wunderground v.1.15,2013-09-21 21:05:00,
2013-09-21 17:10:00,73.5,70.4,29.69,NNW,332,2.0,2.0,90,0.00,,,0.03,Wunderground v.1.15,2013-09-21 21:10:00,
2013-09-21 17:15:00,73.4,70.3,29.69,SSW,209,3.0,3.0,90,0.00,,,0.03,Wunderground v.1.15,2013-09-21 21:15:00,
2013-09-21 17:20:00,73.4,70.6,29.69,NNW,327,2.0,2.0,91,0.00,,,0.03,Wunderground v.1.15,2013-09-21 21:20:00,
2013-09-21 17:25:00,73.3,70.2,29.70,WNW,303,2.0,2.0,90,0.00,,,0.03,Wunderground v.1.15,2013-09-21 21:25:00,
2013-09-21 17:35:00,73.2,70.1,29.70,WNW,286,3.0,5.0,90,0.00,,,0.03,Wunderground v.1.15,2013-09-21 21:35:00,
2013-09-21 17:40:00,73.1,70.0,29.70,WNW,288,3.0,3.0,90,0.00,,,0.03,Wunderground v.1.15,2013-09-21 21:40:00,
2013-09-21 17:45:00,73.1,70.0,29.70,West,261,3.0,4.0,90,0.00,,,0.04,Wunderground v.1.15,2013-09-21 21:45:00,
2013-09-21 17:50:00,72.9,69.8,29.70,NW,304,3.0,3.0,90,0.00,,,0.04,Wunderground v.1.15,2013-09-21 21:50:00,
2013-09-21 17:55:00,72.8,69.7,29.70,WNW,285,3.0,3.0,90,0.00,,,0.04,Wunderground v.1.15,2013-09-21 21:55:00,
2013-09-21 18:00:00,72.7,69.6,29.70,WNW,292,3.0,3.0,90,0.00,,,0.04,Wunderground v.1.15,2013-09-21 22:00:00,
2013-09-21 18:05:00,72.6,69.5,29.70,NNW,333,3.0,6.0,90,0.00,,,0.04,Wunderground v.1.15,2013-09-21 22:05:00,
2013-09-21 18:10:00,72.6,69.8,29.70,WNW,284,3.0,6.0,91,0.00,,,0.04,Wunderground v.1.15,2013-09-21 22:10:00,
2013-09-21 18:15:00,72.6,69.8,29.71,West,275,2.0,6.0,91,0.00,,,0.04,Wunderground v.1.15,2013-09-21 22:15:00,
2013-09-21 18:20:00,72.5,69.7,29.71,WNW,289,2.0,6.0,91,0.00,,,0.04,Wunderground v.1.15,2013-09-21 22:20:00,
2013-09-21 18:25:00,72.3,69.5,29.71,WNW,290,2.0,6.0,91,0.00,,,0.04,Wunderground v.1.15,2013-09-21 22:25:00,
2013-09-21 18:30:00,72.2,69.4,29.71,West,275,2.0,2.0,91,0.00,,,0.04,Wunderground v.1.15,2013-09-21 22:30:00,
2013-09-21 18:35:00,72.0,69.5,29.71,West,271,2.0,6.0,92,0.00,,,0.04,Wunderground v.1.15,2013-09-21 22:35:00,
2013-09-21 18:40:00,71.9,69.4,29.71,WSW,257,3.0,6.0,92,0.00,,,0.04,Wunderground v.1.15,2013-09-21 22:40:00,
2013-09-21 18:45:00,71.8,69.3,29.71,WSW,246,4.0,6.0,92,0.00,,,0.05,Wunderground v.1.15,2013-09-21 22:45:00,
2013-09-21 18:50:00,71.7,69.6,29.71,WSW,250,3.0,6.0,93,0.00,,,0.05,Wunderground v.1.15,2013-09-21 22:50:00,
2013-09-21 18:55:00,71.6,69.5,29.71,West,273,3.0,6.0,93,0.04,,,0.06,Wunderground v.1.15,2013-09-21 22:55:00,
2013-09-21 19:00:00,71.5,69.4,29.71,WSW,253,4.0,6.0,93,0.04,,,0.06,Wunderground v.1.15,2013-09-21 23:00:00,
2013-09-21 19:05:00,71.4,69.3,29.71,WSW,242,3.0,6.0,93,0.04,,,0.06,Wunderground v.1.15,2013-09-21 23:05:00,
2013-09-21 19:10:00,71.3,69.2,29.71,West,273,3.0,6.0,93,0.27,,,0.08,Wunderground v.1.15,2013-09-21 23:10:00,
2013-09-21 19:15:00,71.1,69.0,29.71,WSW,257,4.0,6.0,93,0.12,,,0.09,Wunderground v.1.15,2013-09-21 23:15:00,
2013-09-21 19:20:00,70.9,68.8,29.72,WSW,247,4.0,6.0,93,0.22,,,0.10,Wunderground v.1.15,2013-09-21 23:20:00,
2013-09-21 19:25:00,70.8,69.0,29.71,WSW,242,4.0,6.0,94,0.26,,,0.12,Wunderground v.1.15,2013-09-21 23:25:00,
2013-09-21 19:30:00,70.5,68.4,29.71,SW,236,3.0,6.0,93,0.12,,,0.13,Wunderground v.1.15,2013-09-21 23:30:00,
2013-09-21 19:35:00,70.1,68.0,29.71,WSW,242,2.0,6.0,93,0.17,,,0.14,Wunderground v.1.15,2013-09-21 23:35:00,
2013-09-21 19:40:00,69.7,67.3,29.71,WSW,250,2.0,6.0,92,0.08,,,0.15,Wunderground v.1.15,2013-09-21 23:40:00,
2013-09-21 19:45:00,69.4,67.3,29.71,West,265,2.0,6.0,93,0.16,,,0.16,Wunderground v.1.15,2013-09-21 23:45:00,
2013-09-21 19:50:00,69.3,67.2,29.71,West,266,1.0,1.0,93,0.09,,,0.16,Wunderground v.1.15,2013-09-21 23:50:00,
2013-09-21 19:55:00,69.2,67.1,29.71,West,266,0.0,6.0,93,0.22,,,0.19,Wunderground v.1.15,2013-09-21 23:55:00,
2013-09-21 20:00:00,69.2,67.1,29.72,West,266,0.0,6.0,93,0.40,,,0.22,Wunderground v.1.15,2013-09-22 00:00:00,
2013-09-21 20:05:00,69.1,67.0,29.72,West,266,0.0,6.0,93,0.46,,,0.25,Wunderground v.1.15,2013-09-22 00:05:00,
2013-09-21 20:10:00,69.0,66.9,29.72,West,266,0.0,6.0,93,0.21,,,0.27,Wunderground v.1.15,2013-09-22 00:10:00,
2013-09-21 20:15:00,69.0,67.2,29.72,West,266,0.0,6.0,94,0.27,,,0.29,Wunderground v.1.15,2013-09-22 00:15:00,
2013-09-21 20:20:00,68.9,67.1,29.72,West,266,0.0,6.0,94,0.22,,,0.31,Wunderground v.1.15,2013-09-22 00:20:00,
2013-09-21 20:25:00,68.8,66.7,29.72,SW,217,0.0,6.0,93,0.15,,,0.33,Wunderground v.1.15,2013-09-22 00:25:00,
2013-09-21 20:30:00,68.4,66.3,29.72,SW,217,0.0,6.0,93,0.24,,,0.35,Wunderground v.1.15,2013-09-22 00:30:00,
2013-09-21 20:35:00,68.2,66.1,29.72,SW,217,0.0,6.0,93,0.35,,,0.38,Wunderground v.1.15,2013-09-22 00:35:00,
2013-09-21 20:40:00,68.0,65.9,29.72,SW,217,0.0,6.0,93,0.32,,,0.40,Wunderground v.1.15,2013-09-22 00:40:00,
2013-09-21 20:45:00,67.8,65.7,29.73,SW,217,0.0,6.0,93,0.45,,,0.43,Wunderground v.1.15,2013-09-22 00:45:00,
2013-09-21 20:50:00,67.6,65.5,29.73,SW,217,0.0,6.0,93,0.48,,,0.47,Wunderground v.1.15,2013-09-22 00:50:00,
2013-09-21 20:55:00,67.5,65.4,29.73,SW,217,0.0,6.0,93,0.57,,,0.51,Wunderground v.1.15,2013-09-22 00:55:00,
2013-09-21 21:00:00,67.3,65.5,29.73,SW,217,0.0,6.0,94,0.34,,,0.55,Wunderground v.1.15,2013-09-22 01:00:00,
2013-09-21 21:05:00,67.2,65.1,29.73,SW,217,0.0,6.0,93,0.38,,,0.58,Wunderground v.1.15,2013-09-22 01:05:00,
2013-09-21 21:10:00,67.2,65.4,29.73,SW,217,0.0,6.0,94,0.62,,,0.63,Wunderground v.1.15,2013-09-22 01:10:00,
2013-09-21 21:15:00,67.2,65.4,29.72,SE,133,0.0,6.0,94,0.96,,,0.69,Wunderground v.1.15,2013-09-22 01:15:00,
2013-09-21 21:20:00,67.1,65.3,29.72,ESE,121,0.0,6.0,94,0.55,,,0.75,Wunderground v.1.15,2013-09-22 01:20:00,
2013-09-21 21:25:00,67.1,65.3,29.72,ESE,119,0.0,6.0,94,0.43,,,0.79,Wunderground v.1.15,2013-09-22 01:25:00,
2013-09-21 21:30:00,67.0,65.2,29.72,ESE,106,0.0,6.0,94,0.41,,,0.83,Wunderground v.1.15,2013-09-22 01:30:00,
2013-09-21 21:35:00,67.0,65.2,29.72,ESE,106,0.0,6.0,94,0.49,,,0.87,Wunderground v.1.15,2013-09-22 01:35:00,
2013-09-21 21:45:00,67.1,65.6,29.71,NNE,32,0.0,6.0,95,0.20,,,0.91,Wunderground v.1.15,2013-09-22 01:45:00,
2013-09-21 21:50:00,67.2,65.7,29.71,NNE,32,0.0,6.0,95,0.18,,,0.93,Wunderground v.1.15,2013-09-22 01:50:00,
2013-09-21 21:55:00,67.2,65.7,29.72,NE,55,0.0,6.0,95,0.39,,,0.96,Wunderground v.1.15,2013-09-22 01:55:00,
2013-09-21 22:00:00,67.2,65.7,29.72,NE,55,0.0,6.0,95,0.34,,,0.99,Wunderground v.1.15,2013-09-22 02:00:00,
2013-09-21 22:05:00,67.3,65.8,29.72,NNW,343,1.0,6.0,95,0.59,,,1.04,Wunderground v.1.15,2013-09-22 02:05:00,
2013-09-21 22:10:00,67.3,65.8,29.71,NNW,331,1.0,6.0,95,0.45,,,1.08,Wunderground v.1.15,2013-09-22 02:10:00,
2013-09-21 22:15:00,67.2,65.7,29.71,NE,54,1.0,6.0,95,0.34,,,1.11,Wunderground v.1.15,2013-09-22 02:15:00,
2013-09-21 22:20:00,67.1,65.6,29.71,East,83,2.0,2.0,95,0.31,,,1.13,Wunderground v.1.15,2013-09-22 02:20:00,
2013-09-21 22:25:00,67.1,65.6,29.72,NNE,25,1.0,6.0,95,0.36,,,1.16,Wunderground v.1.15,2013-09-22 02:25:00,
2013-09-21 22:30:00,67.0,65.5,29.72,NNW,333,0.0,6.0,95,0.63,,,1.20,Wunderground v.1.15,2013-09-22 02:30:00,
2013-09-21 22:35:00,67.0,65.5,29.72,ENE,71,0.0,6.0,95,0.21,,,1.22,Wunderground v.1.15,2013-09-22 02:35:00,
2013-09-21 22:40:00,66.9,65.4,29.71,ENE,59,1.0,1.0,95,0.26,,,1.24,Wunderground v.1.15,2013-09-22 02:40:00,
2013-09-21 22:45:00,66.6,65.1,29.71,ENE,59,1.0,3.0,95,0.15,,,1.25,Wunderground v.1.15,2013-09-22 02:45:00,
2013-09-21 22:50:00,66.2,64.7,29.71,NNE,26,2.0,2.0,95,0.10,,,1.26,Wunderground v.1.15,2013-09-22 02:50:00,
2013-09-21 23:00:00,65.7,64.2,29.71,NNE,23,1.0,-999.0,95,0.29,,,1.31,Wunderground v.1.15,2013-09-22 03:00:00,
2013-09-21 23:05:00,65.7,64.2,29.71,NNE,23,1.0,-999.0,95,0.29,,,1.31,Wunderground v.1.15,2013-09-22 03:05:00,
2013-09-21 23:10:00,65.7,64.2,29.71,NNE,23,1.0,-999.0,95,0.29,,,1.31,Wunderground v.1.15,2013-09-22 03:10:00,
2013-09-21 23:15:00,64.2,62.4,29.71,NNE,23,2.0,-999.0,94,0.10,,,1.31,Wunderground v.1.15,2013-09-22 03:15:00,
2013-09-21 23:20:00,64.2,62.4,29.71,NNE,23,2.0,-999.0,94,0.10,,,1.31,Wunderground v.1.15,2013-09-22 03:20:00,
2013-09-21 23:25:00,64.2,62.4,29.71,NNE,23,2.0,-999.0,94,0.10,,,1.31,Wunderground v.1.15,2013-09-22 03:25:00,
2013-09-21 23:30:00,64.2,62.4,29.71,NNE,23,2.0,-999.0,94,0.10,,,1.31,Wunderground v.1.15,2013-09-22 03:30:00,
2013-09-21 23:35:00,64.2,62.4,29.71,NNE,23,2.0,-999.0,94,0.10,,,1.31,Wunderground v.1.15,2013-09-22 03:35:00,
2013-09-21 23:40:00,64.2,62.4,29.71,NNE,23,2.0,-999.0,94,0.10,,,1.31,Wunderground v.1.15,2013-09-22 03:40:00,
2013-09-21 23:45:00,63.8,62.3,29.70,NNE,23,1.0,-999.0,95,0.02,,,1.31,Wunderground v.1.15,2013-09-22 03:45:00,
2013-09-21 23:50:00,63.8,62.3,29.70,NNE,23,1.0,-999.0,95,0.02,,,1.31,Wunderground v.1.15,2013-09-22 03:50:00,
2013-09-21 23:55:00,63.8,62.3,29.70,NNE,23,1.0,-999.0,95,0.02,,,1.31,Wunderground v.1.15,2013-09-22 03:55:00,